Flag Weather past 2 weeks in Aurich, Lower Saxony, Germany

Now
50 °F

Cool.


Feels Like: 47 °F
Forecast: 39 / 48 °F
Wind: 8 mph from Southwest

Location: Wittmundhaven

Current Time: Nov 24, 2014 at 1:15:59 AM

Latest Report: Nov 24, 2014 at 12:20 AM


Visibility: 1 mi

Pressure: 29.92 "Hg

Humidity: 100%

Dew point: 50 °F

Location of AurichLocation

Historic Weather in Aurich — Graph

°F

Aurich temperature yesterday

Maximum temperature yesterday: 54 °F (at 2:20 PM)
Minimum temperature yesterday: 43 °F (at 12:20 AM)
Average temperature yesterday: 48 °F

Past Weeks' High & Low Weather Summary

 TemperatureHumidityPressure
High54 °F (Nov 9, 2:20 PM)100% (Nov 10, 8:20 AM)30.39 "Hg (Nov 10, 8:20 AM)
Low30 °F (Nov 21, 3:20 AM)50% (Nov 11, 1:20 PM)29.53 "Hg (Nov 16, 12:20 PM)
Average46 °F91%29.90 "Hg
* Reported Nov 8 11:20 PM — Nov 23 11:20 PM, Aurich, Weather by CustomWeather, © 2014

Note: Actual official high and low records may vary slightly from our data, if they occured in-between our weather recording intervals... More about our weather records

Advertising

Aurich weather history for previous 24 hours

 ConditionsComfort  
Time TempWeatherWind HumidityBarometerVisibility
11:20 PM
Nov 23
50 °FCool.7 mph94%29.92 "Hg4 mi
10:20 PM50 °FCool.7 mph88%29.92 "Hg5 mi
9:20 PM52 °FCool.9 mph82%29.92 "Hg5 mi
8:20 PM50 °FCool.7 mph88%29.92 "Hg5 mi
7:20 PM50 °FCool.7 mph88%29.92 "Hg5 mi
6:20 PM52 °FCool.9 mph82%29.95 "Hg5 mi
5:20 PM50 °FCool.7 mph88%29.95 "Hg5 mi
4:20 PM52 °FCool.6 mph88%29.95 "Hg5 mi
3:20 PM54 °FCool.7 mph82%29.98 "Hg5 mi
2:20 PM54 °FCool.8 mph82%29.98 "Hg5 mi
1:20 PM52 °FCool.7 mph88%30.01 "Hg4 mi
12:20 PM52 °FCool.7 mph82%30.04 "Hg4 mi
11:20 AM50 °FCool.7 mph88%30.07 "Hg4 mi
10:20 AM46 °FCool.6 mph93%30.07 "Hg4 mi
9:20 AM45 °FQuite cool.5 mph93%30.09 "Hg3 mi
8:20 AM45 °FQuite cool.6 mph93%30.07 "Hg3 mi
7:20 AM45 °FQuite cool.6 mph93%30.07 "Hg3 mi
6:20 AM43 °FQuite cool.6 mph93%30.07 "Hg3 mi
5:20 AM43 °FQuite cool.3 mph93%30.07 "Hg4 mi
4:20 AM43 °FQuite cool.5 mph93%30.07 "Hg3 mi
3:20 AM43 °FQuite cool.5 mph93%30.09 "Hg4 mi
2:20 AM43 °FQuite cool.5 mph93%30.09 "Hg4 mi
1:20 AM43 °FQuite cool.3 mph93%30.09 "Hg4 mi
Weather by CustomWeather, © 2014

See weather overviewHow to use our weather pages